When you browse on this site, cookies collect data to enhance your experience and personalize the content and advertising you see.
Visit our Privacy Policy to learn more. By continuing to use the site, you agree to this use of cookies and data.
  • en France
  • Liste des pays
  • À 7 jours
  • Température de l'eau
  • Carte météo
  • Widgets météo
  • user-avatar
    Se connecter

    Météo par heure à Sidi-bel-Abbès

    Ce jour, 19 Février, Mercredi

    Heure Température Précipitation Vent Pression Humidité
    00:00 +11°C° 0 mm 1 m/s 727 mmHg 91%
    01:00 +11°C° 0 mm 1 m/s 727 mmHg 92%
    02:00 +11°C° 0 mm 1 m/s 727 mmHg 93%
    03:00 +10°C° 0 mm 0 m/s 726 mmHg 95%
    04:00 +11°C° 0 mm 1 m/s 726 mmHg 95%
    05:00 +11°C° 0 mm 1 m/s 727 mmHg 95%
    06:00 +11°C° 0 mm 1 m/s 727 mmHg 96%
    07:00 +12°C° 0 mm 1 m/s 727 mmHg 93%
    08:00 +12°C° 0 mm 1 m/s 727 mmHg 89%
    09:00 +12°C° 0 mm 0 m/s 728 mmHg 86%
    10:00 +14°C° 0 mm 1 m/s 728 mmHg 79%
    11:00 +15°C° 0 mm 1 m/s 728 mmHg 73%
    12:00 +16°C° 0 mm 1 m/s 728 mmHg 66%
    13:00 +17°C° 0 mm 2 m/s 727 mmHg 63%
    14:00 +17°C° 0 mm 3 m/s 727 mmHg 60%
    15:00 +18°C° 0 mm 3 m/s 726 mmHg 57%
    16:00 +17°C° 0 mm 4 m/s 726 mmHg 64%
    17:00 +14°C° 0 mm 4 m/s 726 mmHg 72%
    18:00 +13°C° 0 mm 4 m/s 726 mmHg 80%
    19:00 +12°C° 0 mm 3 m/s 726 mmHg 84%
    20:00 +12°C° 0 mm 2 m/s 726 mmHg 88%
    21:00 +11°C° 0 mm 1 m/s 726 mmHg 92%
    22:00 +11°C° 0 mm 1 m/s 726 mmHg 92%
    23:00 +11°C° 0 mm 1 m/s 726 mmHg 92%

    Demain, 20 Février, Jeudi

    Heure Température Précipitation Vent Pression Humidité
    00:00 +11°C° 0 mm 1 m/s 725 mmHg 92%
    01:00 +10°C° 0 mm 1 m/s 725 mmHg 92%
    02:00 +10°C° 0 mm 1 m/s 724 mmHg 91%
    03:00 +10°C° 0 mm 1 m/s 724 mmHg 91%
    04:00 +10°C° 0 mm 1 m/s 724 mmHg 90%
    05:00 +10°C° 0 mm 1 m/s 724 mmHg 90%
    06:00 +10°C° 0 mm 1 m/s 724 mmHg 89%
    07:00 +12°C° 0 mm 1 m/s 724 mmHg 81%
    08:00 +13°C° 0 mm 2 m/s 724 mmHg 73%
    09:00 +15°C° 0 mm 2 m/s 724 mmHg 65%
    10:00 +17°C° 0 mm 2 m/s 724 mmHg 57%
    11:00 +19°C° 0 mm 2 m/s 724 mmHg 49%
    12:00 +21°C° 0 mm 1 m/s 724 mmHg 41%
    13:00 +21°C° 0 mm 2 m/s 724 mmHg 40%
    14:00 +21°C° 0 mm 2 m/s 723 mmHg 40%
    15:00 +23°C° 0 mm 2 m/s 723 mmHg 39%
    16:00 +20°C° 0 mm 2 m/s 723 mmHg 48%
    17:00 +18°C° 0 mm 2 m/s 723 mmHg 58%
    18:00 +16°C° 0 mm 2 m/s 722 mmHg 67%
    19:00 +15°C° 0 mm 2 m/s 723 mmHg 69%
    20:00 +15°C° 0 mm 2 m/s 723 mmHg 70%
    21:00 +14°C° 0 mm 1 m/s 724 mmHg 72%
    22:00 +14°C° 0 mm 1 m/s 724 mmHg 72%
    23:00 +13°C° 0 mm 1 m/s 724 mmHg 72%

    Après-demain, 21 Février, Vendredi

    Heure Température Précipitation Vent Pression Humidité
    00:00 +13°C° 0 mm 1 m/s 724 mmHg 72%
    01:00 +12°C° 0 mm 1 m/s 724 mmHg 73%
    02:00 +12°C° 0 mm 1 m/s 724 mmHg 74%
    03:00 +11°C° 0 mm 1 m/s 724 mmHg 74%
    04:00 +11°C° 0 mm 1 m/s 724 mmHg 76%
    05:00 +10°C° 0 mm 0 m/s 724 mmHg 78%
    06:00 +9°C° 0 mm 0 m/s 724 mmHg 79%
    13:00 +17°C° 0 mm 3 m/s 726 mmHg 65%
    14:00 +18°C° 0 mm 3 m/s 726 mmHg 60%
    15:00 +18°C° 0 mm 3 m/s 726 mmHg 61%
    16:00 +17°C° 0 mm 3 m/s 726 mmHg 69%
    17:00 +14°C° 0 mm 3 m/s 726 mmHg 78%
    18:00 +13°C° 0 mm 3 m/s 726 mmHg 87%
    19:00 +13°C° 0 mm 2 m/s 726 mmHg 89%
    20:00 +13°C° 0 mm 2 m/s 726 mmHg 92%
    21:00 +12°C° 0 mm 1 m/s 727 mmHg 94%
    22:00 +12°C° 0 mm 1 m/s 727 mmHg 94%
    23:00 +12°C° 0 mm 1 m/s 727 mmHg 94%

    22 Février, Samedi

    Heure Température Précipitation Vent Pression Humidité
    00:00 +11°C° 0 mm 0 m/s 727 mmHg 94%
    01:00 +10°C° 0 mm 0 m/s 727 mmHg 94%
    02:00 +11°C° 0 mm 1 m/s 727 mmHg 94%
    03:00 +11°C° 0 mm 1 m/s 727 mmHg 95%
    04:00 +10°C° 0 mm 0 m/s 727 mmHg 95%
    05:00 +10°C° 0 mm 0 m/s 727 mmHg 94%
    06:00 +10°C° 0 mm 0 m/s 727 mmHg 94%
    07:00 +11°C° 0 mm 0 m/s 727 mmHg 90%
    08:00 +12°C° 0 mm 0 m/s 728 mmHg 86%
    09:00 +13°C° 0 mm 0 m/s 729 mmHg 82%
    10:00 +15°C° 0 mm 1 m/s 729 mmHg 73%
    11:00 +18°C° 0 mm 1 m/s 729 mmHg 64%
    12:00 +19°C° 0 mm 2 m/s 729 mmHg 54%
    13:00 +19°C° 0 mm 3 m/s 729 mmHg 52%
    14:00 +20°C° 0 mm 3 m/s 728 mmHg 50%
    15:00 +20°C° 0 mm 4 m/s 728 mmHg 48%
    16:00 +18°C° 0 mm 4 m/s 728 mmHg 60%
    17:00 +16°C° 0 mm 3 m/s 728 mmHg 72%
    18:00 +13°C° 0 mm 3 m/s 728 mmHg 84%
    19:00 +14°C° 0 mm 2 m/s 728 mmHg 86%
    20:00 +13°C° 0 mm 2 m/s 728 mmHg 89%
    21:00 +13°C° 0 mm 1 m/s 729 mmHg 92%
    22:00 +12°C° 0 mm 1 m/s 729 mmHg 91%
    23:00 +12°C° 0 mm 1 m/s 729 mmHg 90%

    23 Février, Dimanche

    Heure Température Précipitation Vent Pression Humidité
    00:00 +12°C° 0 mm 1 m/s 728 mmHg 89%
    01:00 +12°C° 0 mm 1 m/s 728 mmHg 87%
    02:00 +12°C° 0 mm 1 m/s 728 mmHg 85%
    03:00 +11°C° 0 mm 1 m/s 728 mmHg 84%
    04:00 +11°C° 0 mm 1 m/s 728 mmHg 80%
    05:00 +11°C° 0 mm 1 m/s 728 mmHg 76%
    06:00 +10°C° 0 mm 2 m/s 728 mmHg 72%
    07:00 +13°C° 0 mm 2 m/s 729 mmHg 62%
    08:00 +15°C° 0 mm 2 m/s 729 mmHg 52%
    09:00 +17°C° 0 mm 2 m/s 730 mmHg 42%
    10:00 +18°C° 0 mm 3 m/s 730 mmHg 35%
    11:00 +20°C° 0 mm 3 m/s 730 mmHg 28%
    12:00 +22°C° 0 mm 3 m/s 730 mmHg 22%
    13:00 +22°C° 0 mm 3 m/s 729 mmHg 20%
    14:00 +22°C° 0 mm 3 m/s 729 mmHg 19%
    15:00 +24°C° 0 mm 3 m/s 728 mmHg 18%
    16:00 +21°C° 0 mm 3 m/s 728 mmHg 24%
    17:00 +19°C° 0 mm 3 m/s 728 mmHg 30%
    18:00 +17°C° 0 mm 3 m/s 728 mmHg 36%
    19:00 +16°C° 0 mm 3 m/s 728 mmHg 37%
    20:00 +14°C° 0 mm 3 m/s 728 mmHg 37%
    21:00 +14°C° 0 mm 3 m/s 728 mmHg 38%
    22:00 +13°C° 0 mm 3 m/s 728 mmHg 37%
    23:00 +13°C° 0 mm 3 m/s 728 mmHg 36%

    24 Février, Lundi

    Heure Température Précipitation Vent Pression Humidité
    00:00 +13°C° 0 mm 4 m/s 728 mmHg 36%
    01:00 +13°C° 0 mm 4 m/s 728 mmHg 36%
    02:00 +12°C° 0 mm 4 m/s 728 mmHg 36%
    03:00 +12°C° 0 mm 3 m/s 727 mmHg 36%
    04:00 +12°C° 0 mm 3 m/s 727 mmHg 37%
    05:00 +11°C° 0 mm 3 m/s 727 mmHg 38%
    06:00 +12°C° 0 mm 2 m/s 727 mmHg 39%
    07:00 +13°C° 0 mm 3 m/s 728 mmHg 36%
    08:00 +16°C° 0 mm 3 m/s 728 mmHg 34%
    09:00 +18°C° 0 mm 3 m/s 729 mmHg 32%
    10:00 +19°C° 0 mm 3 m/s 729 mmHg 29%
    11:00 +21°C° 0 mm 3 m/s 729 mmHg 27%
    12:00 +22°C° 0 mm 3 m/s 728 mmHg 25%
    13:00 +22°C° 0 mm 3 m/s 728 mmHg 28%
    14:00 +22°C° 0 mm 3 m/s 727 mmHg 31%
    15:00 +22°C° 0 mm 3 m/s 727 mmHg 33%
    16:00 +19°C° 0 mm 3 m/s 726 mmHg 43%
    17:00 +17°C° 0 mm 2 m/s 726 mmHg 53%
    18:00 +15°C° 0 mm 1 m/s 725 mmHg 63%
    19:00 +14°C° 0 mm 1 m/s 726 mmHg 66%
    20:00 +12°C° 0 mm 0 m/s 726 mmHg 70%
    21:00 +11°C° 0 mm 0 m/s 726 mmHg 73%
    22:00 +11°C° 0 mm 0 m/s 726 mmHg 73%
    23:00 +11°C° 0 mm 0 m/s 726 mmHg 74%
    Voir plus